STARLINK-2728, 48478

Orbit data source: Space-Track

STARLINK-2728, 48478 is a payload satellite owned by SpaceX/Seattle (US) in LEO that was launched on Sun, 09 May 2021 UTC via an FALCON 9 launch vehicle from the Air Force Eastern Test Range (AFETR). Payload-class satellites include a variety of spacecraft equipped with specific instruments for various scientific and technological missions. These include communications satellites like Starlink; space stations such as the ISS; scientific satellites like the Hubble; Earth observation satellites from companies like Planet Labs, Umbra, and HawkEye 360; GPS; miniature CubeSats for education and research; and military/defense satellites.

Loading next visibility...
Identifier
48478, 2021-040BC
Orbit
LEO
Country
Flag of USUS
Related business
Manufacturer
SpaceX/Seattle
Mission
Operational Commercial Communications
Bus & Motor
STARLINK, Unknown motor
Mass
260 kg wet, ~248 kg dry
Launch date (UTC)
2021-05-09 (5 years ago)
Launch vehicle
FALCON 9
Launch site
Air Force Eastern Test Range (AFETR)
Object type
Payload
Rocket body
Debris
Shape & HBR
Box + 1 Pan, 10.1 m
Radar Cross Section
13.562 m², Large (>1 m²)

Expand to show TLE details & history
Last TLE update: 2 days ago

TLE from 2 days ago
0 STARLINK-2728
1 48478U 21040BC  26171.42594757  .00001070  00000-0  46225-4 0  9999
2 48478  53.1621  73.1874 0001351 104.2809 255.8343 15.31706441282234
Epoch: 2026-06-20T10:13Z
TLE epoch observation values (Epoch: 2026-06-20T10:13:21.870Z)
Latitude
0.00004°
Longitude
11.20556°
Altitude
471.848 km
Speed
7.631 km/s
True Right ascension
04h 52m 44s
True Declination
0° 00' 00"
Sunlit
Object was in daylight at epoch
Visualization orbit readout
Latitude
Unknown
Longitude
Unknown
Altitude
Unknown
Speed
Unknown
Apparent Right ascension
Unknown
Apparent Declination
Unknown
Sunlit
N/A
Visualization observer readout
Local Sidereal Time
21:27:26
Azimuth
Unknown
Elevation
Unknown
Doppler factor
Unknown
Orbital elements
Apogee altitude
471.902 km
Perigee altitude
470.052 km
Semi-major axis
6,849.114 km
Eccentricity
0.00014
Inclination
53.1621°
RAAN
73.1874°
Arg. of periapsis
104.2809°
True anomaly
255.81929°
Mean anomaly
255.8343°
Eccentric anomaly
255.82679°
Mean motion
3.82905 °/min
Orbital period
94.02 mins
BSTAR
0.000046225
Loading maneuver chart data...
Computing Atmospheric mass density...

Documentation

Showing up to 5 results
|